Location: Newark
(48.6461°N, 4.3644°W)
Time: 08:15:31
(UTC+00:00)

Altair - Pass Details

Date: 26 January 2021
Orbit: 1501 x 1682 km, 47.2° (Epoch: 24 February)

Event Time Altitude Azimuth Distance (km) Brightness Sun altitude
Exits shadow 06:14:44 12° 245° (WSW) 3,745 9.0 -16.4°
Maximum altitude 06:24:14 74° 163° (SSE) 1,736 7.8 -14.8°
Drops below altitude 10° 06:34:22 10° 81° (E) 3,943 10.8 -13.2°
Sets 06:37:32 0° 80° (E) 4,923 11.5 -12.7°
